Date,TemperatureHighF,TemperatureAvgF,TemperatureLowF,DewpointHighF,DewpointAvgF,DewpointLowF,HumidityHigh,HumidityAvg,HumidityLow,PressureMaxIn,PressureMinIn,WindSpeedMaxMPH,WindSpeedAvgMPH,GustSpeedMaxMPH,PrecipitationSumIn
2013-2-1,32.5,27.9,21.1,17.0,9.2,5.0,58,46,37,29.75,29.26,13,6,22,0.00
2013-2-2,30.7,23.8,15.4,13.0,7.8,4.0,64,51,39,29.90,29.70,12,3,14,0.00
2013-2-3,27.0,24.2,18.2,23.0,20.0,14.0,92,84,62,29.71,29.40,6,2,9,0.00
2013-2-4,29.3,23.4,16.8,21.0,11.9,7.0,90,63,40,29.61,29.39,11,4,27,0.00
2013-2-5,29.8,24.3,17.2,22.0,15.5,10.0,90,70,53,29.68,29.59,3,0,8,0.00
2013-2-6,38.2,29.3,21.8,26.0,18.4,4.0,94,67,40,29.96,29.58,15,3,19,0.02
2013-2-7,30.6,23.9,13.0,12.0,6.3,4.0,84,49,32,30.18,29.96,9,2,13,0.00
2013-2-8,26.7,23.6,18.0,25.0,19.5,10.0,94,85,56,30.14,29.30,22,6,33,0.00
2013-2-9,21.2,18.7,13.4,20.0,17.2,12.0,94,93,92,29.87,29.27,25,9,32,0.00
2013-2-10,33.5,18.7,1.6,32.0,17.1,-1.0,97,93,88,30.05,29.87,8,2,14,0.04
2013-2-11,39.9,26.2,9.1,39.0,25.2,7.0,98,95,91,30.00,29.28,4,0,9,0.18
2013-2-12,44.6,38.7,33.0,40.0,30.2,25.0,98,73,56,29.56,29.28,19,5,24,0.00
2013-2-13,44.2,34.5,24.5,26.0,24.2,20.0,87,68,46,29.53,29.37,8,2,11,0.00
2013-2-14,47.4,34.4,24.8,25.0,22.4,21.0,89,64,38,29.64,29.38,8,2,12,0.00
2013-2-15,53.1,36.2,21.4,35.0,28.6,19.0,96,77,48,29.65,29.55,8,1,16,0.00
2013-2-16,37.7,33.8,27.8,32.0,27.7,18.0,95,79,57,29.62,29.40,11,3,17,0.02
2013-2-17,28.5,21.8,16.6,21.0,10.6,1.0,90,64,44,29.38,29.09,24,8,31,0.00
2013-2-18,32.5,22.3,13.4,5.0,1.3,-1.0,56,42,25,29.82,29.37,16,6,27,0.00
2013-2-19,48.1,32.7,14.9,39.0,23.7,3.0,97,71,49,29.83,29.25,6,1,18,0.23
2013-2-20,39.6,31.6,25.9,39.0,19.7,11.0,97,63,42,29.45,29.21,16,6,27,0.00
2013-2-21,33.2,27.6,23.8,17.0,14.1,11.0,70,57,45,29.86,29.43,14,6,24,0.00
2013-2-22,41.3,30.7,16.7,25.0,20.4,14.0,91,67,42,30.04,29.87,12,2,16,0.00
2013-2-23,37.8,33.1,27.4,33.0,28.9,23.0,96,85,74,29.99,29.58,3,1,10,0.00
2013-2-24,34.4,33.5,31.9,33.0,32.7,31.0,97,96,95,29.57,29.38,9,3,14,0.49
2013-2-25,39.5,33.3,24.2,35.0,31.4,23.0,97,92,81,29.90,29.57,6,0,8,0.32
2013-2-26,44.3,36.7,31.6,37.0,30.8,29.0,97,81,61,30.00,29.82,5,1,10,0.00
2013-2-27,41.4,37.4,33.7,40.0,36.0,31.0,97,94,84,29.82,29.25,10,4,19,1.29
2013-2-28,45.9,37.0,29.7,38.0,34.3,28.0,97,90,75,29.31,29.20,6,1,10,0.01